FFT2401 KTPA-KDFW

Flight info

Callsign FFT2401
Flight time N/A
Altitude 36000
Route DORMR3 FROOT ROZZI Y280 REDFN Q105 HRV J58 AEX PNUTS BEREE3
Aircraft A320/M-SDE3FGHIRWY/LB1

Departure

Time N/A
Airport Tampa International Airport (KTPA)

Arrival

Time 2026-05-08 04:46
Airport Dallas Fort Worth International Airport (KDFW)
Time Latitude Longitude Altitude Speed Heading
2026-05-08 03:11 28.69839 -88.03898 36065 ft 394 kts 284°
2026-05-08 03:12 28.71500 -88.09838 36069 ft 393 kts 284°
2026-05-08 03:12 28.73157 -88.15730 36066 ft 393 kts 284°
2026-05-08 03:13 28.74820 -88.21665 36062 ft 393 kts 284°
2026-05-08 03:13 28.76475 -88.27590 36061 ft 393 kts 284°
2026-05-08 03:14 28.78133 -88.33522 36061 ft 393 kts 284°
2026-05-08 03:14 28.79797 -88.39453 36060 ft 393 kts 284°
2026-05-08 03:15 28.81448 -88.45389 36058 ft 392 kts 284°
2026-05-08 03:15 28.83094 -88.51321 36058 ft 392 kts 284°
2026-05-08 03:16 28.84742 -88.57255 36057 ft 392 kts 284°
2026-05-08 03:16 28.86376 -88.63158 36057 ft 392 kts 283°
2026-05-08 03:17 28.88144 -88.69056 36057 ft 396 kts 291°
2026-05-08 03:17 28.91376 -88.74246 36053 ft 407 kts 304°
2026-05-08 03:18 28.95078 -88.79131 36055 ft 407 kts 304°
2026-05-08 03:18 28.98766 -88.84028 36078 ft 406 kts 303°
2026-05-08 03:19 29.02443 -88.88931 36079 ft 406 kts 303°
2026-05-08 03:19 29.05493 -88.92997 36075 ft 405 kts 303°
2026-05-08 03:20 29.09163 -88.97887 36067 ft 405 kts 303°
2026-05-08 03:20 29.12828 -89.02780 36065 ft 405 kts 303°
2026-05-08 03:21 29.16496 -89.07668 36063 ft 405 kts 303°
2026-05-08 03:21 29.20160 -89.12564 36061 ft 405 kts 303°
2026-05-08 03:22 29.23801 -89.17435 36063 ft 405 kts 303°
2026-05-08 03:22 29.27458 -89.22340 36083 ft 405 kts 303°
2026-05-08 03:23 29.31109 -89.27243 36079 ft 404 kts 303°
2026-05-08 03:23 29.34755 -89.32149 36072 ft 404 kts 303°
2026-05-08 03:24 29.38407 -89.37051 36068 ft 404 kts 303°
2026-05-08 03:24 29.42048 -89.41958 36060 ft 404 kts 303°
2026-05-08 03:25 29.45691 -89.46874 36056 ft 404 kts 303°
2026-05-08 03:25 29.49331 -89.51787 36061 ft 404 kts 303°
2026-05-08 03:26 29.52978 -89.56708 36056 ft 404 kts 303°
2026-05-08 03:26 29.56617 -89.61625 36078 ft 404 kts 302°
2026-05-08 03:27 29.60248 -89.66544 36063 ft 403 kts 302°
2026-05-08 03:27 29.63866 -89.71462 36058 ft 403 kts 302°
2026-05-08 03:28 29.67484 -89.76380 36057 ft 402 kts 302°
2026-05-08 03:28 29.71072 -89.81260 36054 ft 402 kts 302°
2026-05-08 03:29 29.74685 -89.86175 36046 ft 402 kts 302°
2026-05-08 03:29 29.78300 -89.91095 36043 ft 402 kts 302°
2026-05-08 03:30 29.83708 -89.98484 36070 ft 402 kts 302°
2026-05-08 03:31 29.90015 -90.08897 36064 ft 395 kts 296°
2026-05-08 03:32 29.94592 -90.16788 36064 ft 395 kts 296°
2026-05-08 03:32 29.97638 -90.22054 36058 ft 394 kts 296°
2026-05-08 03:33 30.00680 -90.27325 36064 ft 394 kts 296°
2026-05-08 03:33 30.03692 -90.32565 36056 ft 394 kts 296°
2026-05-08 03:34 30.06742 -90.37874 36055 ft 394 kts 296°
2026-05-08 03:34 30.09782 -90.43145 36083 ft 394 kts 296°
2026-05-08 03:35 30.12817 -90.48417 36112 ft 394 kts 296°
2026-05-08 03:35 30.15826 -90.53651 36104 ft 393 kts 296°
2026-05-08 03:36 30.18842 -90.58915 36100 ft 393 kts 296°
2026-05-08 03:36 30.21846 -90.64184 36091 ft 392 kts 296°
2026-05-08 03:37 30.24844 -90.69448 36067 ft 392 kts 296°
2026-05-08 03:37 30.27854 -90.74713 36063 ft 392 kts 296°
2026-05-08 03:38 30.30857 -90.79977 36065 ft 392 kts 296°
2026-05-08 03:38 30.33861 -90.85243 36063 ft 392 kts 296°
2026-05-08 03:39 30.36857 -90.90515 36063 ft 392 kts 296°
2026-05-08 03:39 30.39844 -90.95797 36092 ft 392 kts 295°
2026-05-08 03:40 30.42829 -91.01075 36088 ft 391 kts 295°
2026-05-08 03:40 30.45811 -91.06335 36086 ft 390 kts 295°
2026-05-08 03:41 30.48783 -91.11590 36085 ft 390 kts 295°
2026-05-08 03:41 30.51754 -91.16840 36092 ft 389 kts 295°
2026-05-08 03:42 30.54716 -91.22091 36082 ft 389 kts 295°
2026-05-08 03:42 30.57674 -91.27347 36077 ft 389 kts 295°
2026-05-08 03:43 30.60607 -91.32566 36077 ft 388 kts 295°
2026-05-08 03:43 30.63558 -91.37814 36070 ft 388 kts 295°
2026-05-08 03:44 30.66501 -91.43070 36063 ft 388 kts 295°
2026-05-08 03:44 30.69450 -91.48326 36067 ft 388 kts 295°
2026-05-08 03:45 30.72395 -91.53583 36065 ft 388 kts 295°
2026-05-08 03:45 30.75333 -91.58848 36064 ft 388 kts 295°
2026-05-08 03:46 30.78263 -91.64111 36071 ft 388 kts 295°
2026-05-08 03:46 30.81199 -91.69384 36066 ft 388 kts 295°
2026-05-08 03:47 30.84131 -91.74655 36061 ft 388 kts 295°
2026-05-08 03:47 30.87062 -91.79927 36062 ft 388 kts 295°
2026-05-08 03:48 30.89991 -91.85200 36058 ft 388 kts 295°
2026-05-08 03:48 30.92895 -91.90444 36059 ft 388 kts 295°
2026-05-08 03:49 30.95819 -91.95722 36091 ft 387 kts 294°
2026-05-08 03:49 30.98730 -92.00988 36087 ft 386 kts 294°
2026-05-08 03:50 31.01634 -92.06248 36087 ft 386 kts 294°
2026-05-08 03:50 31.04538 -92.11508 36082 ft 385 kts 294°
2026-05-08 03:51 31.07431 -92.16765 36077 ft 385 kts 294°
2026-05-08 03:51 31.10320 -92.22022 36070 ft 385 kts 294°
2026-05-08 03:52 31.13211 -92.27282 36064 ft 385 kts 294°
2026-05-08 03:52 31.16095 -92.32549 36053 ft 385 kts 294°
2026-05-08 03:53 31.18979 -92.37820 36043 ft 386 kts 294°
2026-05-08 03:53 31.21873 -92.43109 36043 ft 386 kts 294°
2026-05-08 03:54 31.24757 -92.48399 36080 ft 386 kts 293°
2026-05-08 03:54 31.26994 -92.53909 36075 ft 375 kts 284°
2026-05-08 03:55 31.28923 -92.59563 36067 ft 375 kts 284°
2026-05-08 03:55 31.30852 -92.65224 36066 ft 375 kts 284°
2026-05-08 03:56 31.32780 -92.70880 36065 ft 374 kts 284°
2026-05-08 03:56 31.34709 -92.76549 36071 ft 374 kts 284°
2026-05-08 03:57 31.36633 -92.82208 36092 ft 374 kts 284°
2026-05-08 03:57 31.38553 -92.87867 36079 ft 374 kts 284°
2026-05-08 03:58 31.40454 -92.93502 36089 ft 374 kts 284°
2026-05-08 03:58 31.42362 -92.99173 36089 ft 374 kts 284°
2026-05-08 03:59 31.44272 -93.04841 36089 ft 374 kts 284°
2026-05-08 03:59 31.46186 -93.10518 36092 ft 374 kts 284°
2026-05-08 04:00 31.48091 -93.16193 36090 ft 374 kts 284°
2026-05-08 04:00 31.49995 -93.21863 36131 ft 373 kts 284°
2026-05-08 04:01 31.51888 -93.27505 36124 ft 371 kts 284°
2026-05-08 04:01 31.53765 -93.33136 36117 ft 370 kts 284°
2026-05-08 04:02 31.55637 -93.38756 36114 ft 370 kts 284°
2026-05-08 04:02 31.57492 -93.44334 36109 ft 369 kts 284°
2026-05-08 04:03 31.59356 -93.49946 36105 ft 369 kts 284°
2026-05-08 04:03 31.61942 -93.58425 36101 ft 366 kts 280°
2026-05-08 04:04 31.63338 -93.64157 36102 ft 365 kts 279°
2026-05-08 04:04 31.64715 -93.69898 36099 ft 366 kts 279°
2026-05-08 04:05 31.66136 -93.75634 36100 ft 366 kts 280°
2026-05-08 04:05 31.67577 -93.81373 36103 ft 366 kts 280°
2026-05-08 04:06 31.69016 -93.87108 36095 ft 367 kts 280°
2026-05-08 04:06 31.70461 -93.92856 36094 ft 367 kts 280°
2026-05-08 04:07 31.71900 -93.98603 36090 ft 367 kts 280°
2026-05-08 04:07 31.73331 -94.04340 36089 ft 367 kts 280°
2026-05-08 04:08 31.74753 -94.10085 36124 ft 367 kts 279°
2026-05-08 04:08 31.76090 -94.15488 36113 ft 367 kts 280°
2026-05-08 04:09 31.77515 -94.21229 36100 ft 367 kts 279°
2026-05-08 04:09 31.78939 -94.27006 36092 ft 368 kts 279°
2026-05-08 04:10 31.80366 -94.32798 36086 ft 369 kts 279°
2026-05-08 04:10 31.81787 -94.38595 36087 ft 369 kts 279°
2026-05-08 04:11 31.83206 -94.44345 36085 ft 369 kts 279°
2026-05-08 04:11 31.84620 -94.50137 36084 ft 369 kts 279°
2026-05-08 04:12 31.86027 -94.55933 36084 ft 369 kts 279°
2026-05-08 04:12 31.87441 -94.61735 36066 ft 369 kts 279°
2026-05-08 04:13 31.88859 -94.67550 36071 ft 370 kts 279°
2026-05-08 04:13 31.90268 -94.73382 36063 ft 370 kts 279°
2026-05-08 04:14 31.91683 -94.79210 36066 ft 371 kts 279°
2026-05-08 04:14 31.93096 -94.85057 36070 ft 371 kts 279°
2026-05-08 04:15 31.94502 -94.90905 36072 ft 371 kts 279°
2026-05-08 04:15 31.95911 -94.96752 36070 ft 371 kts 279°
2026-05-08 04:16 31.97309 -95.02570 36057 ft 371 kts 279°
2026-05-08 04:16 31.98722 -95.08462 36076 ft 371 kts 278°
2026-05-08 04:17 32.00120 -95.14319 36070 ft 371 kts 278°
2026-05-08 04:17 32.01512 -95.20176 36061 ft 371 kts 278°
2026-05-08 04:18 32.02905 -95.26037 36061 ft 371 kts 278°
2026-05-08 04:18 32.04285 -95.31860 36064 ft 371 kts 278°
2026-05-08 04:19 32.05690 -95.37760 36063 ft 372 kts 278°
2026-05-08 04:19 32.07081 -95.43640 36059 ft 372 kts 278°
2026-05-08 04:20 32.08469 -95.49522 36069 ft 373 kts 278°
2026-05-08 04:20 32.09852 -95.55414 36073 ft 373 kts 278°
2026-05-08 04:21 32.11227 -95.61305 36073 ft 373 kts 278°
2026-05-08 04:21 32.12602 -95.67168 36078 ft 373 kts 278°
2026-05-08 04:22 32.13986 -95.73069 35897 ft 374 kts 278°
2026-05-08 04:22 32.14677 -95.76027 35652 ft 374 kts 278°
2026-05-08 04:22 32.15368 -95.78998 35197 ft 377 kts 278°
2026-05-08 04:23 32.16063 -95.82008 34294 ft 384 kts 278°
2026-05-08 04:23 32.16770 -95.85075 33266 ft 391 kts 279°
2026-05-08 04:23 32.17489 -95.88194 32233 ft 397 kts 279°
2026-05-08 04:23 32.18222 -95.91356 31226 ft 402 kts 279°
2026-05-08 04:24 32.18966 -95.94560 30396 ft 404 kts 279°
2026-05-08 04:24 32.19707 -95.97723 29920 ft 396 kts 280°
2026-05-08 04:24 32.20436 -96.00830 29283 ft 391 kts 280°
2026-05-08 04:24 32.21152 -96.03907 28641 ft 386 kts 280°
2026-05-08 04:25 32.21851 -96.06954 27997 ft 382 kts 280°
2026-05-08 04:25 32.22540 -96.09969 27377 ft 379 kts 281°
2026-05-08 04:25 32.23227 -96.12963 26703 ft 377 kts 281°
2026-05-08 04:25 32.23911 -96.15943 26087 ft 374 kts 281°
2026-05-08 04:26 32.24361 -96.17907 25687 ft 372 kts 281°
2026-05-08 04:26 32.25040 -96.20846 25100 ft 370 kts 282°
2026-05-08 04:26 32.25714 -96.23763 24523 ft 367 kts 282°
2026-05-08 04:26 32.26379 -96.26655 23965 ft 363 kts 282°
2026-05-08 04:27 32.27030 -96.29476 23333 ft 350 kts 284°
2026-05-08 04:27 32.27973 -96.32099 22751 ft 346 kts 296°
2026-05-08 04:27 32.29388 -96.34432 22513 ft 354 kts 307°
2026-05-08 04:27 32.31134 -96.36509 22080 ft 356 kts 309°
2026-05-08 04:28 32.32905 -96.38550 21576 ft 355 kts 310°
2026-05-08 04:28 32.34669 -96.40564 21081 ft 355 kts 310°
2026-05-08 04:28 32.36447 -96.42592 20566 ft 355 kts 310°
2026-05-08 04:28 32.38217 -96.44614 20064 ft 353 kts 310°
2026-05-08 04:29 32.39980 -96.46635 19562 ft 352 kts 310°
2026-05-08 04:29 32.41736 -96.48654 19073 ft 352 kts 310°
2026-05-08 04:29 32.43490 -96.50672 18574 ft 352 kts 310°
2026-05-08 04:29 32.45245 -96.52696 18055 ft 352 kts 310°
2026-05-08 04:30 32.46998 -96.54721 17468 ft 352 kts 310°
2026-05-08 04:30 32.48745 -96.56737 17023 ft 349 kts 310°
2026-05-08 04:30 32.50485 -96.58736 16567 ft 347 kts 311°
2026-05-08 04:30 32.52212 -96.60714 16115 ft 345 kts 311°
2026-05-08 04:31 32.53932 -96.62683 15686 ft 342 kts 311°
2026-05-08 04:31 32.55636 -96.64637 15260 ft 340 kts 311°
2026-05-08 04:31 32.57330 -96.66580 14815 ft 338 kts 311°
2026-05-08 04:31 32.59029 -96.68510 14358 ft 337 kts 312°
2026-05-08 04:32 32.60730 -96.70427 13838 ft 338 kts 313°
2026-05-08 04:32 32.62419 -96.72320 13506 ft 332 kts 313°
2026-05-08 04:32 32.64069 -96.74167 13375 ft 320 kts 312°
2026-05-08 04:32 32.65660 -96.75953 13193 ft 311 kts 312°
2026-05-08 04:33 32.67220 -96.77708 12923 ft 306 kts 312°
2026-05-08 04:33 32.68751 -96.79441 12799 ft 303 kts 311°
2026-05-08 04:33 32.70269 -96.81169 12688 ft 302 kts 311°
2026-05-08 04:33 32.71762 -96.82873 12580 ft 301 kts 312°
2026-05-08 04:34 32.73268 -96.84587 12464 ft 297 kts 312°
2026-05-08 04:34 32.74735 -96.86248 12354 ft 286 kts 313°
2026-05-08 04:34 32.76151 -96.87852 12249 ft 276 kts 312°
2026-05-08 04:34 32.77516 -96.89402 12138 ft 267 kts 312°
2026-05-08 04:35 32.78948 -96.90765 12013 ft 263 kts 327°
2026-05-08 04:35 32.80673 -96.91433 12017 ft 263 kts 349°
2026-05-08 04:35 32.82520 -96.91485 12018 ft 266 kts 355°
2026-05-08 04:35 32.84369 -96.91474 12025 ft 266 kts 355°
2026-05-08 04:36 32.86225 -96.91462 12021 ft 266 kts 355°
2026-05-08 04:36 32.88092 -96.91450 12021 ft 265 kts 355°
2026-05-08 04:36 32.89933 -96.91439 11789 ft 264 kts 355°
2026-05-08 04:36 32.91766 -96.91426 11496 ft 263 kts 355°
2026-05-08 04:37 32.93570 -96.91414 11231 ft 262 kts 355°
2026-05-08 04:37 32.95394 -96.91402 10946 ft 262 kts 355°
2026-05-08 04:37 32.97212 -96.91388 10682 ft 261 kts 355°
2026-05-08 04:37 32.99029 -96.91375 10380 ft 261 kts 355°
2026-05-08 04:38 33.00847 -96.91362 10077 ft 261 kts 355°
2026-05-08 04:38 33.02663 -96.91351 9758 ft 261 kts 356°
2026-05-08 04:38 33.04473 -96.91340 9444 ft 259 kts 356°
2026-05-08 04:38 33.06273 -96.91326 9123 ft 258 kts 356°
2026-05-08 04:39 33.08064 -96.91313 8815 ft 257 kts 356°
2026-05-08 04:39 33.09849 -96.91300 8497 ft 256 kts 356°
2026-05-08 04:39 33.11623 -96.91299 8176 ft 253 kts 353°
2026-05-08 04:39 33.13301 -96.91827 7531 ft 252 kts 323°
2026-05-08 04:40 33.14518 -96.93271 6825 ft 251 kts 295°
2026-05-08 04:40 33.14986 -96.95239 6312 ft 245 kts 275°
2026-05-08 04:40 33.15152 -96.97256 5777 ft 244 kts 273°
2026-05-08 04:40 33.15049 -96.99258 5239 ft 242 kts 251°
2026-05-08 04:41 33.14232 -97.00991 4686 ft 241 kts 227°
2026-05-08 04:41 33.12858 -97.02136 4124 ft 240 kts 200°
2026-05-08 04:41 33.11288 -97.02491 4007 ft 222 kts 180°
2026-05-08 04:41 33.09813 -97.02493 3979 ft 209 kts 180°
2026-05-08 04:42 33.08372 -97.02505 3790 ft 206 kts 180°
2026-05-08 04:42 33.06938 -97.02514 3542 ft 205 kts 180°
2026-05-08 04:42 33.05508 -97.02522 3278 ft 206 kts 180°
2026-05-08 04:42 33.04069 -97.02530 3005 ft 207 kts 179°
2026-05-08 04:43 33.02695 -97.02537 2755 ft 200 kts 180°
2026-05-08 04:43 33.01311 -97.02545 2476 ft 184 kts 180°
2026-05-08 04:43 33.00087 -97.02552 2251 ft 168 kts 180°
2026-05-08 04:43 32.98996 -97.02558 2039 ft 148 kts 180°
2026-05-08 04:44 32.97995 -97.02563 1844 ft 141 kts 180°
2026-05-08 04:44 32.97026 -97.02567 1630 ft 138 kts 179°
2026-05-08 04:44 32.96066 -97.02575 1418 ft 138 kts 180°
2026-05-08 04:44 32.95091 -97.02577 1255 ft 142 kts 180°
2026-05-08 04:45 32.94105 -97.02581 1097 ft 142 kts 180°
2026-05-08 04:45 32.93113 -97.02588 908 ft 142 kts 180°
2026-05-08 04:45 32.92121 -97.02591 767 ft 144 kts 180°
2026-05-08 04:45 32.91130 -97.02600 628 ft 142 kts 180°
2026-05-08 04:46 32.90276 -97.02605 622 ft 101 kts 180°
2026-05-08 04:46 32.89744 -97.02608 626 ft 63 kts 180°
2026-05-08 04:46 32.89417 -97.02611 629 ft 31 kts 182°
2026-05-08 04:46 32.89235 -97.02668 623 ft 27 kts 205°
2026-05-08 04:47 32.89091 -97.02768 628 ft 19 kts 210°
2026-05-08 04:47 32.89038 -97.02892 616 ft 18 kts 268°
2026-05-08 04:47 32.89035 -97.03043 616 ft 19 kts 271°
2026-05-08 04:47 32.89038 -97.03205 616 ft 20 kts 271°
2026-05-08 04:48 32.89037 -97.03373 615 ft 22 kts 271°
2026-05-08 04:48 32.88966 -97.03443 620 ft 14 kts 194°
2026-05-08 04:48 32.88881 -97.03490 624 ft 13 kts 204°
2026-05-08 04:48 32.88811 -97.03543 618 ft 9 kts 255°
2026-05-08 04:49 32.88830 -97.03572 620 ft 3 kts 313°
2026-05-08 04:49 32.88835 -97.03575 618 ft 0 kts 323°
2026-05-08 04:49 32.88835 -97.03576 618 ft 0 kts 323°